Date,TemperatureHighF,TemperatureAvgF,TemperatureLowF,DewpointHighF,DewpointAvgF,DewpointLowF,HumidityHigh,HumidityAvg,HumidityLow,PressureMaxIn,PressureMinIn,WindSpeedMaxMPH,WindSpeedAvgMPH,GustSpeedMaxMPH,PrecipitationSumIn
2013-9-1,82.6,71.1,57.9,50.4,35.9,22.5,57,31,11,30.18,30.06,21,6,21,0.00
2013-9-2,87.6,68.3,55.9,43.8,35.4,27.8,47,31,13,30.15,30.03,20,10,20,0.00
2013-9-3,96.4,76.0,61.2,45.0,37.1,25.4,48,28,9,30.09,29.97,25,12,26,0.00
2013-9-4,96.4,80.5,64.9,46.2,36.8,24.7,41,24,9,30.15,30.06,24,11,24,0.00
2013-9-5,94.3,80.8,71.6,43.9,38.9,26.0,33,24,9,30.15,30.09,24,9,26,0.00
2013-9-7,101.1,87.8,72.7,53.0,26.7,16.5,50,15,5,30.03,29.97,17,10,23,0.00
2013-9-8,102.0,82.7,66.4,57.3,33.4,8.9,69,26,5,30.03,29.85,28,10,31,0.00
2013-9-9,94.5,77.8,63.3,50.8,39.5,16.9,59,29,6,29.97,29.82,26,11,26,0.12
2013-9-10,69.1,63.9,60.6,53.3,48.3,44.8,70,57,44,30.09,29.94,28,12,28,0.00
2013-9-12,80.4,70.3,63.1,57.2,46.7,34.5,76,47,20,30.27,30.21,24,10,24,0.00
2013-9-13,65.5,59.8,55.4,52.0,43.9,36.2,76,57,39,30.24,30.09,29,16,30,0.16
2013-9-15,62.2,59.4,57.4,51.5,45.8,40.5,77,61,48,30.27,30.15,23,10,25,0.04
2013-9-16,58.3,55.5,54.0,50.2,47.3,44.8,82,74,63,30.27,30.12,21,12,21,0.04
2013-9-17,83.1,67.6,55.0,66.3,51.3,44.1,88,61,26,30.12,29.85,21,12,21,0.00
2013-9-18,92.8,70.3,58.5,59.8,46.9,18.6,72,51,7,29.85,29.76,12,7,13,0.00
2013-9-19,65.8,58.9,51.6,40.6,33.4,29.9,52,39,28,30.18,29.94,23,7,23,0.04
2013-9-20,75.4,59.3,42.3,39.0,31.0,24.4,60,37,16,30.21,30.03,11,6,11,0.00
2013-9-21,85.3,72.8,52.0,42.3,30.7,16.7,54,26,8,30.03,26.61,23,13,25,0.00
2013-9-22,83.3,60.6,55.0,47.3,43.7,37.6,69,56,20,29.80,29.62,29,12,29,0.00
2013-9-23,71.2,61.6,54.3,45.3,36.7,32.0,63,41,25,29.89,29.57,35,18,35,0.00
2013-9-24,75.6,60.0,43.7,46.6,25.7,7.5,78,36,8,30.04,29.89,26,9,26,0.00
2013-9-25,83.5,66.5,50.5,39.5,31.2,18.1,58,30,9,29.89,29.54,39,22,39,0.00
2013-9-26,82.6,65.3,50.4,42.4,33.9,27.0,66,34,14,29.68,29.54,23,10,23,0.00
2013-9-27,62.6,54.5,46.6,42.7,37.8,31.6,75,56,33,29.77,29.65,22,12,24,0.00
2013-9-28,66.7,57.6,47.8,35.2,19.5,12.3,60,24,12,30.07,30.01,26,10,26,0.00
2013-9-29,79.7,58.8,39.2,37.0,21.8,8.5,52,29,7,30.04,29.80,23,8,23,0.00
2013-9-30,86.4,65.2,46.0,38.6,23.5,8.6,49,27,6,29.83,29.68,25,8,26,0.00